Flag for Brazil Weather past 2 weeks in Cruzeiro do Sul, Acre, Brazil

Now
75 °F

Partly sunny.


Feels Like: 75 °F
Forecast: 68 / 86 °F
Wind: 3 mph from South

Location: Cruzeiro Do Sul Airport

Current Time: Jul 6, 2015 at 11:14:15 AM

Latest Report: Jul 6, 2015 at 11:00 AM


Visibility: N/A

Pressure: 30.01 "Hg

Humidity: 83%

Dew point: 70 °F

Location of Cruzeiro do SulLocation

Historic Weather in Cruzeiro do Sul — Graph

°F

Cruzeiro do Sul temperature yesterday

Maximum temperature yesterday: 77 °F (at 10:00 AM)
Minimum temperature yesterday: 70 °F (at 11:00 PM)
Average temperature yesterday: 74 °F

Past Weeks' High & Low Weather Summary

 TemperatureHumidityPressure
High91 °F (Jun 28, 2:00 PM)100% (Jun 21, 7:00 PM)30.12 "Hg (Jun 21, 7:00 PM)
Low68 °F (Jun 21, 11:00 PM)52% (Jun 22, 1:00 PM)29.77 "Hg (Jul 3, 4:00 PM)
Average79 °F86%29.97 "Hg
* Reported Jun 21 10:00 AM — Jul 6 10:00 AM, Cruzeiro do Sul, Weather by CustomWeather, © 2015

Note: Actual official high and low records may vary slightly from our data, if they occured in-between our weather recording intervals... More about our weather records

Advertising

Cruzeiro do Sul weather history for previous 24 hours

 ConditionsComfort  
Time TempWeatherWind HumidityBarometerVisibility
10:00 AM
Mon, Jul 6
73 °FMostly cloudy.2 mph89%30.04 "HgN/A
9:00 AM72 °FMostly cloudy.3 mph88%30.04 "HgN/A
8:00 AM70 °FMostly cloudy.2 mph94%30.01 "HgN/A
3:00 AM70 °FLow clouds.3 mph100%29.95 "HgN/A
2:00 AM70 °FMostly cloudy.2 mph100%29.98 "HgN/A
1:00 AM70 °FLight rain. Mostly cloudy.2 mph100%29.98 "Hg2 mi
12:00 AM70 °FMostly cloudy.2 mph100%29.98 "HgN/A
11:00 PM
Sun, Jul 5
70 °FMostly cloudy.2 mph100%29.98 "HgN/A
10:00 PM72 °FMostly cloudy.2 mph100%29.98 "HgN/A
9:00 PM72 °FMostly cloudy.3 mph100%29.98 "HgN/A
8:00 PM72 °FMostly cloudy.5 mph100%29.98 "HgN/A
7:00 PM72 °FMostly cloudy.7 mph94%29.98 "HgN/A
6:00 PM72 °FMostly cloudy.3 mph94%29.95 "HgN/A
5:00 PM73 °FMostly cloudy.5 mph89%29.95 "HgN/A
4:00 PM75 °FMostly cloudy.5 mph89%29.92 "HgN/A
3:00 PM75 °FMostly cloudy.2 mph89%29.95 "HgN/A
2:00 PM75 °FMostly cloudy.3 mph83%29.98 "HgN/A
1:00 PM77 °FPartly sunny.9 mph83%30.01 "HgN/A
12:00 PM75 °FOvercast.10 mph83%30.04 "HgN/A
11:00 AM75 °FPartly sunny.9 mph89%30.04 "HgN/A
Weather by CustomWeather, © 2015

See weather overviewHow to use our weather pages